Regional Weather Roundup
Issued by NWS

Home | Current Version | Previous Version | Graphics & Text | Print | Product List | Glossary On
Versions: 1 2 3 4 5 6 7 8 9 10 11 12 13 14 15 16 17 18 19 20 21 22 23 24 25 26 27 28 29 30 31 32 33 34 35 36 37 38 39 40 41 42 43 44 45 46 47 48 49 50
000
ASUS43 KDMX 030107
RWRIA

WEATHER ROUNDUP FOR IOWA
NATIONAL WEATHER SERVICE DES MOINES IA
800 PM CDT WED SEP 02 2015

NOTE: "FAIR" INDICATES FEW OR NO CLOUDS BELOW 12,000 FEET WITH NO
SIGNIFICANT WEATHER AND/OR OBSTRUCTIONS TO VISIBILITY.

* - THESE STATIONS ARE NOT NWS STATIONS...THUS NOT UNDER NWS
QUALITY CONTROL.  THEY ALSO DO NOT REPORT WEATHER SUCH
AS PRECIPITATION OR FOG.

IAZ001>003-012>014-020>022-031>034-043>046-030200-
   NORTHWEST IOWA

CITY           SKY/WX    TMP DP  RH WIND       PRES   REMARKS
CARROLL *      CLEAR     75  72  88 S6        29.87R
CHEROKEE *     CLEAR     79  73  83 SE3       29.85R HX  82
DENISON *      CLEAR     79  72  78 MISG      29.84S HX  82
LE MARS *      CLEAR     81  75  83 SE7       29.83S HX  86
ORANGE CITY *  CLEAR     79  73  83 CALM      29.85R HX  82
SHELDON *      CLEAR     77  73  88 SE5       29.84R
SIOUX CITY     CLEAR     81  69  67 SE5       29.81S HX  84
SPENCER        HAZE      77  71  82 SE6       29.87R VSB 3/4
STORM LAKE *   CLEAR     75  73  94 S7        29.87S
$$

IAZ055>058-069>071-079>083-090>094-030200-
   SOUTHWEST IOWA

CITY           SKY/WX    TMP DP  RH WIND       PRES   REMARKS
ATLANTIC *     PTCLDY    79  72  78 S7        29.87R HX  82
AUDUBON *      CLEAR     77  72  83 CALM      29.89R
CLARINDA *     PTCLDY    81  73  78 SE5       29.89S HX  85
COUNCIL BLFS * CLEAR     81  73  78 SE10G16   29.86R HX  85
CRESTON *      CLEAR     75  72  88 SE6       29.92S
LAMONI         PTCLDY    80  72  76 S6        29.91S HX  84
RED OAK *      PTCLDY    79  73  83 S6        29.87S HX  82
SHENANDOAH *   CLEAR     81  73  78 S9        29.86F HX  85
$$

IAZ047>049-059>061-072>074-084-030200-
   CENTRAL IOWA

CITY           SKY/WX    TMP DP  RH WIND       PRES   REMARKS
AMES           CLEAR     76  68  76 S8        29.89S
ANKENY *       CLEAR     79  70  73 S5        29.90R HX  81
CHARITON *     CLOUDY    77  72  83 S8        29.92S
DES MOINES     PTCLDY    81  69  67 S6        29.90R HX  84
GRINNELL*      CLEAR     77  70  78 S7        29.93R
KNOXVILLE *    PTCLDY    77  70  78 S7        29.90S
MARSHALLTOWN   CLEAR     78  68  71 S7        29.90R HX  80
PELLA *        CLEAR     77  73  88 S6        29.92S
PERRY *          N/A     77  72  83 SE5       29.89R
$$

IAZ004>006-015-016-023>025-035-036-030200-
   NORTH CENTRAL IOWA

CITY           SKY/WX    TMP DP  RH WIND       PRES   REMARKS
ALGONA *       CLEAR     77  73  88 S8        29.88S
CLARION *      CLEAR     75  70  83 S8        29.89R
ESTHERVILLE    PTCLDY    75  72  90 S7        29.86S
FORT DODGE *   CLEAR     79  70  73 S6        29.89R HX  81
MASON CITY     CLEAR     74  72  93 S7        29.90S
FOREST CITY *  CLEAR     73  70  88 S5        29.88S
IOWA FALLS *     N/A     77  72  83 SE5       29.92R
$$

IAZ007>011-017>019-026>030-037>042-050>054-066-030200-
   NORTHEAST IOWA

CITY           SKY/WX    TMP DP  RH WIND       PRES   REMARKS
CEDAR RAPIDS   CLEAR     75  71  87 S6        29.92F
CHARLES CITY * CLEAR     77  73  88 S7        29.90S
CLINTON *      CLEAR     77  72  83 S7        29.96S
DECORAH *      MOCLDY    77  72  83 S9        29.89F
DUBUQUE        CLEAR     74  70  87 S5        29.94F
MONTICELLO *   CLEAR     75  72  88 S5        29.93S
OELWEIN *      CLEAR     75  72  88 S7        29.92S
WATERLOO       CLEAR     78  70  76 S10       29.89S HX  80
$$

IAZ064-065-067-068-078-030200-
   EAST CENTRAL IOWA

CITY           SKY/WX    TMP DP  RH WIND       PRES   REMARKS
DAVENPORT      CLEAR     77  70  79 S6        29.94F
IOWA CITY      PTCLDY    77  70  79 SE6       29.93F
MT. PLEASANT * CLEAR     75  66  73 S3        29.95R
MUSCATINE *    CLEAR     79  70  73 SW3       29.93S HX  81
QUAD CITIES    MOCLDY    80  69  69 CALM      29.93F HX  83
$$

IAZ062-063-075>077-085>089-095>099-030200-
   SOUTHEAST IOWA

CITY           SKY/WX    TMP DP  RH WIND       PRES   REMARKS
BURLINGTON     CLEAR     79  68  69 S7        29.95R HX  81
FAIRFIELD *    CLEAR     79  68  69 S6        29.94R HX  81
FORT MADISON * CLEAR     77  70  78 S6        29.96S
KEOKUK *       CLEAR     81  68  65 S3        29.95R HX  83
OSKALOOSA *      N/A     75  70  83 S3        29.93R
CENTERVILLE *  CLEAR     75  72  88 SE7       29.95S
OTTUMWA        CLEAR     76  71  85 S6        29.91S
WASHINGTON *     N/A    N/A N/A N/A MISG        N/A
$$

ABBREVIATIONS USED IN REMARKS
   TC - TEMPERATURES IN CELSIUS
  WCI - WIND CHILL INDEX
   HX - HEAT INDEX
  VSB - VISIBILITY
$$




USA.gov is the U.S. government's official web portal to all federal, state and local government web resources and services.